Probability
23 35 58 58 55 55 52 48 45 42 39 39 35 39 39 39 39 39 32 35 35 35 35 26 26 19 19 26 23 19 19 16 19 19 19 16 13 10 13 16 13 3 10
26 39 55 55 55 52 52 48 45 42 42 39 32 29 29 35 39 39 32 29 35 29 29 26 23 19 19 10 10 13 16 10 10 6 16 16 10 3 6 13 16 3 10
32 42 42 48 52 52 52 48 39 39 42 35 32 32 29 32 32 29 29 23 19 19 19 23 19 16 16 16 10 10 6 10 6 3 6 0 6 6 6 13 16 13 6
35 42 42 45 48 48 45 42 39 35 39 29 29 26 26 26 26 26 19 16 13 16 23 19 19 16 16 13 16 6 6 6 3 3 3 0 0 3 6 13 10 10 10
29 42 42 45 42 45 45 45 42 39 39 29 29 26 29 19 16 19 19 16 16 10 13 13 16 16 16 13 13 3 6 6 6 3 0 0 0 0 3 10 6 13 10
26 29 42 39 39 42 39 39 39 39 29 26 23 16 16 13 13 13 13 16 16 13 13 10 10 13 10 10 13 6 6 10 6 3 0 0 0 0 6 3 6 6 6
23 26 35 39 39 39 39 35 32 32 35 23 19 16 16 13 13 13 13 13 13 10 10 10 6 10 6 6 10 6 6 3 0 0 0 0 0 0 3 6 3 3 3
26 32 32 35 35 32 32 32 32 32 29 23 19 16 16 19 13 10 10 13 13 10 13 10 10 6 10 10 6 10 6 3 0 0 0 0 0 0 3 6 3 3 3
23 26 29 32 32 32 32 32 29 29 29 26 23 23 19 19 13 10 13 16 13 13 10 10 10 6 6 3 3 3 0 0 0 0 0 0 0 0 3 6 0 3 3
16 23 23 23 26 26 26 26 26 26 26 26 23 13 10 10 10 10 10 13 13 13 10 6 6 6 3 3 3 3 0 0 0 0 0 0 0 0 3 6 3 0 6
13 10 19 19 23 23 19 19 19 19 19 13 6 6 6 3 3 6 3 6 10 6 6 6 6 6 0 0 0 0 0 0 0 0 0 0 0 0 3 10 6 3 6
10 10 10 10 13 16 19 19 10 13 6 3 0 0 0 0 0 0 0 0 6 3 3 3 3 3 0 0 0 0 0 0 0 0 0 0 3 3 0 10 13 3 3
3 6 3 10 10 10 10 10 6 3 0 0 0 0 0 0 0 0 0 0 0 0 0 3 3 0 0 0 0 0 0 0 0 0 0 0 0 3 0 3 13 3 3
3 3 6 3 3 3 6 3 0 0 0 0 0 0 0 0 0 0 0 0 0 0 0 0 0 0 0 0 0 0 0 0 0 0 0 0 0 0 0 0 6 3 3
0 3 3 6 3 3 3 3 0 0 0 0 0 0 0 0 0 0 0 0 0 0 0 0 0 0 0 0 0 0 0 0 0 0 0 0 0 0 0 3 3 3 3
0 0 3 6 6 3 3 3 3 0 0 0 0 0 0 0 0 0 0 0 0 0 0 0 0 0 0 0 0 0 0 0 0 0 0 0 0 0 0 6 6 6 10
0 0 0 3 6 3 3 3 3 0 0 0 0 0 0 0 0 0 0 0 0 0 0 0 0 0 0 0 0 0 0 0 0 0 0 0 0 0 0 0 3 3 10
0 0 0 0 3 6 3 0 0 0 0 0 0 0 0 0 0 0 0 0 0 0 0 0 0 0 0 0 0 0 0 0 0 0 0 0 0 0 0 0 0 3 6
0 0 0 0 0 3 0 0 0 0 0 0 0 0 0 0 0 0 0 0 0 0 0 0 0 0 0 0 0 0 0 0 0 0 0 0 0 0 0 0 0 0 0
0 0 0 0 0 0 0 0 0 0 0 0 0 0 0 0 0 0 0 0 0 0 0 0 0 0 0 0 0 0 0 0 0 0 0 0 0 0 0 0 0 0 0
0 0 0 0 0 0 0 0 0 3 0 0 0 0 0 0 0 0 0 0 0 0 0 0 0 0 0 0 0 0 0 0 0 0 0 0 0 0 0 0 0 0 0
0 0 0 0 0 0 0 0 0 0 0 0 0 0 0 0 0 0 0 0 0 0 0 0 0 0 0 0 0 0 0 0 0 0 0 0 0 0 0 0 0 0 0
0 0 0 0 0 0 0 0 0 0 0 0 0 0 0 0 0 0 0 0 0 0 0 0 0 0 0 0 0 0 0 0 0 0 0 0 0 0 0 0 0 0 0
0 0 0 0 0 0 0 0 0 0 0 0 0 0 0 0 0 0 0 0 0 0 0 0 0 0 0 0 0 0 0 0 0 0 0 0 0 0 0 0 0 0 0
0 0 0 0 0 0 0 0 0 0 0 0 0 0 0 0 0 0 0 0 0 0 0 0 0 0 0 0 0 0 0 0 0 0 0 0 0 0 0 0 0 0 0
0 0 0 0 0 0 0 0 0 0 0 0 0 0 0 0 0 0 0 0 0 0 0 0 0 0 0 0 0 0 0 0 0 0 0 0 0 0 0 0 0 0 0
Height
5862 5863 5864 5865 5866 5867 5868 5869 5870 5871 5871 5872 5873 5873 5874 5874 5874 5875 5875 5875 5875 5875 5874 5874 5874 5874 5873 5873 5872 5872 5872 5871 5870 5869 5869 5868 5867 5866 5866 5865 5864 5863 5863
5860 5861 5862 5863 5864 5865 5866 5867 5868 5869 5869 5870 5871 5871 5871 5872 5872 5872 5872 5872 5872 5872 5872 5872 5872 5871 5871 5871 5870 5870 5869 5868 5868 5867 5866 5865 5864 5864 5863 5862 5862 5861 5860
5857 5858 5859 5860 5862 5863 5864 5865 5865 5866 5867 5868 5868 5869 5869 5869 5869 5869 5869 5869 5869 5869 5869 5869 5869 5869 5868 5868 5867 5867 5866 5865 5865 5864 5863 5862 5861 5861 5860 5859 5859 5858 5857
5853 5855 5856 5857 5859 5860 5861 5862 5863 5864 5864 5865 5865 5866 5866 5866 5866 5867 5866 5866 5866 5866 5866 5866 5866 5865 5865 5865 5864 5864 5863 5862 5861 5860 5860 5859 5858 5857 5856 5856 5855 5854 5853
5850 5851 5852 5854 5855 5856 5858 5859 5860 5860 5861 5862 5862 5862 5863 5863 5863 5863 5863 5863 5863 5863 5862 5862 5862 5862 5861 5861 5860 5860 5859 5858 5858 5857 5856 5855 5854 5853 5852 5852 5851 5850 5849
5845 5847 5848 5850 5851 5853 5854 5855 5856 5857 5857 5858 5858 5859 5859 5859 5859 5859 5859 5859 5859 5859 5859 5858 5858 5858 5857 5857 5856 5855 5855 5854 5853 5852 5851 5851 5850 5849 5848 5847 5846 5846 5845
5841 5843 5844 5846 5847 5849 5850 5851 5852 5853 5853 5854 5854 5855 5855 5855 5855 5855 5855 5855 5855 5855 5854 5854 5854 5853 5853 5852 5851 5850 5850 5849 5848 5848 5847 5846 5845 5844 5843 5843 5842 5841 5840
5837 5838 5840 5841 5843 5844 5846 5847 5848 5849 5849 5850 5850 5851 5851 5851 5851 5851 5851 5851 5850 5850 5850 5849 5849 5848 5848 5847 5846 5845 5844 5844 5843 5842 5841 5840 5840 5839 5838 5837 5836 5836 5835
5832 5834 5835 5837 5838 5840 5841 5842 5843 5844 5845 5845 5846 5846 5846 5846 5846 5846 5846 5846 5846 5845 5845 5844 5844 5843 5842 5841 5840 5839 5839 5838 5837 5836 5835 5835 5834 5833 5832 5831 5831 5830 5829
5827 5829 5831 5832 5834 5835 5836 5837 5838 5839 5840 5840 5841 5841 5841 5841 5841 5841 5841 5841 5841 5840 5839 5839 5838 5837 5836 5835 5834 5833 5832 5831 5831 5830 5829 5828 5828 5827 5826 5825 5824 5824 5823
5822 5824 5826 5827 5829 5830 5831 5832 5833 5834 5835 5835 5836 5836 5836 5836 5836 5836 5836 5836 5835 5835 5834 5833 5832 5831 5830 5829 5828 5826 5825 5824 5823 5823 5822 5821 5821 5820 5819 5818 5817 5817 5816
5816 5818 5820 5822 5824 5825 5826 5827 5828 5829 5830 5830 5831 5831 5831 5831 5831 5831 5830 5830 5829 5828 5827 5826 5825 5824 5823 5822 5820 5819 5818 5817 5816 5815 5814 5814 5813 5812 5812 5811 5810 5809 5809
5811 5813 5815 5817 5818 5820 5821 5822 5823 5824 5824 5825 5825 5825 5825 5825 5825 5825 5824 5824 5823 5822 5821 5819 5818 5817 5815 5814 5813 5811 5810 5809 5808 5807 5806 5805 5805 5804 5804 5803 5802 5802 5801
5805 5807 5809 5811 5812 5814 5815 5816 5817 5818 5819 5819 5819 5820 5819 5819 5819 5818 5818 5817 5816 5815 5813 5812 5811 5809 5807 5806 5804 5803 5801 5800 5799 5798 5797 5796 5796 5795 5795 5794 5793 5793 5792
5799 5801 5803 5805 5806 5808 5809 5810 5811 5812 5813 5813 5813 5813 5813 5813 5812 5812 5811 5810 5808 5807 5806 5804 5802 5801 5799 5797 5795 5794 5792 5791 5789 5788 5788 5787 5786 5786 5785 5785 5784 5784 5783
5792 5794 5796 5798 5800 5802 5803 5804 5805 5806 5806 5807 5807 5807 5806 5806 5805 5805 5804 5802 5801 5799 5798 5796 5794 5792 5790 5788 5786 5785 5783 5781 5780 5778 5778 5777 5776 5776 5775 5775 5774 5774 5773
5785 5787 5789 5791 5793 5795 5796 5797 5798 5799 5799 5800 5800 5800 5799 5799 5798 5797 5796 5795 5793 5791 5789 5788 5786 5784 5781 5779 5777 5775 5773 5771 5770 5768 5767 5766 5766 5765 5765 5764 5764 5763 5763
5778 5780 5782 5784 5786 5788 5789 5790 5791 5792 5792 5792 5793 5793 5792 5792 5791 5790 5788 5787 5785 5783 5781 5779 5777 5775 5772 5770 5768 5766 5763 5761 5759 5758 5757 5756 5755 5754 5754 5753 5753 5752 5751
5771 5773 5775 5777 5779 5780 5782 5783 5784 5785 5785 5785 5785 5785 5784 5784 5783 5782 5780 5779 5777 5775 5773 5771 5768 5766 5764 5761 5759 5757 5754 5752 5750 5748 5747 5745 5744 5743 5742 5742 5741 5741 5740
5764 5766 5768 5770 5771 5773 5774 5776 5776 5777 5778 5778 5777 5777 5776 5775 5775 5773 5772 5770 5768 5766 5764 5762 5760 5757 5755 5753 5750 5748 5745 5743 5740 5738 5737 5735 5733 5732 5730 5729 5729 5728 5727
5757 5759 5761 5763 5764 5766 5767 5768 5769 5770 5770 5770 5769 5769 5768 5767 5766 5765 5763 5762 5760 5758 5756 5753 5751 5749 5746 5744 5741 5739 5736 5733 5731 5728 5726 5724 5722 5720 5718 5717 5716 5715 5714
5750 5752 5754 5755 5757 5759 5760 5761 5762 5762 5762 5762 5761 5761 5760 5759 5758 5756 5755 5753 5751 5749 5747 5745 5742 5740 5737 5734 5732 5729 5727 5725 5722 5719 5716 5713 5711 5709 5706 5704 5702 5702 5701
5742 5744 5746 5748 5750 5751 5752 5753 5754 5754 5754 5754 5753 5753 5751 5750 5749 5747 5746 5744 5743 5741 5738 5736 5733 5731 5728 5725 5721 5719 5717 5715 5712 5710 5706 5702 5699 5696 5693 5691 5689 5689 5688
5735 5737 5739 5740 5742 5744 5745 5745 5746 5746 5746 5746 5745 5744 5743 5741 5740 5738 5737 5735 5734 5732 5729 5727 5724 5722 5719 5716 5712 5709 5706 5702 5700 5699 5697 5692 5688 5685 5682 5679 5677 5676 5675
5727 5729 5731 5733 5734 5736 5737 5738 5738 5738 5738 5738 5737 5736 5735 5733 5731 5730 5728 5726 5725 5723 5720 5718 5715 5712 5709 5706 5703 5699 5696 5692 5688 5686 5685 5683 5679 5674 5670 5667 5664 5663 5663
5719 5721 5723 5725 5727 5728 5729 5730 5730 5730 5730 5730 5729 5728 5726 5724 5723 5721 5719 5717 5715 5713 5711 5708 5706 5703 5700 5696 5693 5689 5685 5682 5679 5676 5674 5671 5668 5665 5660 5656 5653 5652 5652
Wind_Speed
15 15 14 14 14 14 14 14 14 13 13 13 13 13 14 14 14 14 13 13 14 14 14 14 13 14 14 14 14 13 14 14 14 13 14 14 14 14 14 14 14 14 14
17 16 16 16 16 16 16 16 15 15 15 15 15 15 15 16 16 16 16 16 16 16 16 16 16 16 16 16 16 16 16 16 16 16 16 16 16 16 16 16 16 17 16
19 19 18 18 18 18 17 17 17 17 17 17 17 17 17 17 17 17 18 18 18 18 18 18 18 18 18 18 18 18 18 18 18 18 18 18 18 19 19 19 19 19 19
21 21 20 20 20 19 19 19 19 18 18 18 18 18 19 19 19 19 19 19 20 20 20 20 20 20 20 20 20 20 20 20 20 20 20 20 20 20 20 21 21 21 21
22 23 23 22 21 21 20 20 20 20 19 19 20 20 20 20 20 21 21 21 21 21 21 22 22 22 22 22 22 22 22 22 22 22 22 22 22 22 22 23 23 23 23
24 24 24 23 23 22 22 22 22 21 21 21 21 21 21 22 22 22 22 22 23 23 23 23 23 23 24 24 24 24 24 24 24 24 25 25 24 24 24 24 25 25 25
25 25 25 24 24 24 24 23 23 23 23 23 23 23 23 23 23 23 23 23 24 24 24 24 25 25 25 25 26 26 26 26 26 26 26 26 27 27 26 26 26 26 26
25 25 25 25 25 25 25 25 25 24 24 24 24 24 24 24 24 24 24 25 25 25 25 26 26 26 27 27 27 27 27 28 28 28 28 28 28 28 28 28 28 28 28
27 26 26 26 26 26 25 25 25 25 25 25 25 25 25 25 25 25 25 25 26 26 26 27 27 27 28 28 28 29 29 29 30 30 30 29 29 29 30 30 30 30 29
28 28 27 27 27 26 26 26 25 25 25 26 26 26 26 26 26 26 26 26 26 27 28 28 29 29 29 30 30 31 31 31 31 31 31 31 31 31 31 32 32 32 31
29 28 28 27 27 27 26 26 26 26 26 26 26 26 26 26 26 27 27 27 27 28 29 30 30 31 31 32 32 33 33 33 33 33 33 33 33 34 34 33 33 33 34
29 29 28 28 28 27 27 27 27 27 27 27 27 27 27 27 27 28 28 28 29 30 31 31 32 33 33 34 34 35 35 35 35 35 35 35 35 36 36 35 35 35 35
30 29 29 28 28 28 28 28 28 28 27 27 27 28 28 28 28 29 29 30 31 31 32 33 34 34 35 36 36 37 37 37 37 37 38 38 37 37 37 38 37 37 37
30 30 30 29 29 29 29 29 29 28 28 28 28 28 29 29 30 30 30 31 32 32 33 34 35 36 36 37 38 39 39 39 39 39 39 39 40 39 40 40 39 39 39
31 31 31 31 30 30 30 30 30 30 29 29 29 29 30 30 30 31 31 32 33 34 34 35 36 36 37 38 39 39 39 40 40 41 40 40 41 42 42 42 41 41 41
31 31 32 32 31 31 31 31 30 30 30 31 31 31 31 31 31 32 33 33 34 34 35 36 36 37 38 38 39 39 40 41 41 42 42 42 42 43 43 42 42 43 44
31 31 32 32 32 32 32 32 31 31 31 32 32 32 32 32 33 33 34 34 34 35 36 37 37 38 38 39 39 40 41 41 41 41 42 43 44 44 43 43 43 44 45
31 32 32 32 32 32 32 32 32 32 32 32 33 33 33 34 34 34 34 35 35 36 37 37 37 38 38 38 38 39 39 40 41 41 41 42 43 44 44 44 45 45 45
31 31 32 32 32 32 32 32 32 32 32 33 33 33 34 34 35 35 35 36 36 36 36 37 37 37 37 37 38 38 38 39 39 40 41 42 43 44 44 45 45 45 45
31 31 32 32 32 31 31 32 32 32 32 33 33 33 34 35 35 35 36 36 36 36 36 36 36 37 37 37 37 38 39 39 39 39 40 41 42 44 45 46 46 46 46
31 30 30 31 31 31 31 31 32 32 32 33 33 33 34 35 35 36 36 36 36 36 36 37 36 36 37 37 38 38 38 39 39 40 40 41 42 43 45 46 47 47 48
30 30 30 30 31 31 31 31 31 32 32 32 33 33 34 35 35 35 36 36 36 36 37 37 37 37 38 39 39 39 39 39 40 40 41 42 43 44 45 46 47 47 47
31 30 30 30 31 31 31 31 31 32 32 32 32 33 34 35 35 36 36 36 36 36 37 37 37 38 39 39 40 40 40 40 40 40 41 43 43 43 44 45 45 45 46
31 31 31 31 31 31 31 31 31 31 31 32 32 33 33 34 35 36 36 36 36 37 37 37 38 39 39 39 40 41 41 42 42 41 40 40 41 41 42 43 43 44 44
32 32 31 31 31 31 31 31 31 31 31 31 32 32 33 34 34 35 36 36 36 36 37 37 38 38 39 39 40 40 41 41 41 41 39 38 39 40 41 42 42 42 42
32 32 32 31 31 31 31 31 31 32 31 31 32 32 33 34 34 35 36 36 36 36 37 37 37 38 38 38 39 40 40 39 38 38 38 38 38 38 39 39 38 39 40
Wind_Direction
237 238 238 239 240 242 244 246 249 251 253 254 256 258 262 265 267 269 271 274 276 278 279 279 279 279 280 281 283 284 286 286 286 285 285 285 286 286 286 286 286 285 282
240 239 239 241 242 244 246 247 250 253 256 258 259 261 263 264 266 268 270 273 275 276 277 278 278 278 278 279 280 282 284 285 285 283 283 283 283 282 282 283 283 283 282
242 242 241 241 243 245 247 249 251 254 256 258 260 262 263 264 265 267 270 272 274 276 276 277 278 278 278 279 280 281 283 283 283 283 282 282 282 282 280 280 280 281 281
240 242 242 242 244 246 248 250 253 255 257 259 261 263 264 265 266 268 270 271 273 274 275 276 277 278 279 280 280 281 281 282 282 282 281 281 281 281 281 280 278 279 279
239 241 243 244 246 247 249 252 254 256 258 260 261 263 264 266 267 268 270 271 273 274 275 276 277 278 279 279 280 280 280 280 280 280 281 281 280 280 280 280 279 278 279
239 241 243 245 247 248 250 253 255 257 259 260 262 263 265 266 268 269 271 271 272 273 275 275 276 277 278 279 279 279 279 279 279 279 280 280 280 279 279 278 278 278 278
240 242 244 245 247 250 252 254 255 257 259 261 263 264 265 266 267 269 270 271 272 273 274 275 276 277 277 278 279 279 279 279 279 279 279 279 279 279 278 278 278 278 278
240 242 244 246 249 251 253 254 256 258 260 261 263 263 264 265 267 268 269 271 272 273 274 276 277 277 278 278 278 278 279 279 279 279 278 278 278 278 278 278 277 277 278
241 243 245 247 249 251 253 254 256 257 259 261 262 263 265 266 267 268 270 271 273 274 275 277 278 278 278 278 278 278 278 279 278 279 278 278 278 277 278 277 277 277 278
242 243 245 248 249 251 253 254 255 257 259 260 262 263 265 267 268 269 271 272 274 276 277 278 278 279 278 278 278 278 278 278 277 277 277 276 276 276 276 277 277 276 276
242 244 246 248 250 251 252 254 256 257 259 261 262 264 266 267 269 270 272 273 275 276 277 278 278 279 279 279 279 278 278 278 277 276 276 276 276 276 276 275 275 275 275
241 243 245 247 249 251 253 254 256 258 260 262 263 265 266 268 270 272 273 274 275 276 277 278 278 278 279 279 279 279 278 278 277 276 276 276 276 276 276 275 274 274 274
241 243 245 247 249 251 253 254 256 258 261 262 264 265 267 269 271 272 274 275 277 277 278 279 279 280 280 279 279 279 278 278 277 276 276 275 275 275 275 275 274 274 273
242 243 245 247 249 251 253 255 257 259 261 264 266 267 269 270 272 273 275 276 277 278 279 280 281 282 282 281 280 279 279 277 276 276 276 276 274 274 274 274 273 273 272
243 243 245 248 250 252 254 256 257 260 262 264 267 268 270 272 273 275 276 278 279 280 280 281 282 283 283 282 281 280 279 277 276 276 275 275 275 274 273 272 272 272 272
244 245 246 248 250 252 254 256 259 261 263 265 267 269 270 272 274 276 278 279 280 281 281 282 282 283 282 282 281 280 280 279 278 276 275 274 274 274 273 272 272 272 271
245 246 247 248 250 252 254 257 259 262 264 266 267 268 270 273 275 277 279 280 281 282 283 283 283 283 283 283 283 282 281 280 278 277 276 275 274 274 274 272 271 272 271
247 247 248 248 250 252 254 257 259 262 265 267 268 269 271 274 276 277 279 280 282 282 283 283 283 283 284 284 285 284 283 281 281 279 277 276 274 273 273 273 272 272 272
247 248 249 249 251 252 254 257 259 262 265 267 269 270 272 273 275 277 279 280 281 282 283 283 283 284 284 285 286 285 284 284 283 281 279 277 276 274 273 273 272 272 272
247 248 249 250 251 252 254 257 260 262 265 267 269 270 272 273 275 277 279 280 281 282 282 282 283 284 284 285 286 286 285 285 284 283 281 279 278 276 275 273 272 272 271
248 248 249 250 250 252 255 258 260 263 265 268 270 271 272 274 275 277 278 279 280 281 282 282 283 283 284 286 287 287 287 285 284 283 282 281 280 279 277 276 273 272 271
247 249 250 250 251 253 256 258 261 263 266 268 270 272 274 275 276 277 278 279 280 281 282 282 283 284 286 287 287 287 287 287 285 284 283 282 281 280 279 277 274 272 271
247 248 250 251 252 254 256 258 260 264 266 269 272 274 276 276 277 278 279 279 280 282 283 283 284 286 287 288 289 289 288 287 286 285 285 284 283 282 281 279 276 273 272
246 248 250 251 252 254 256 259 261 264 266 270 273 275 277 277 278 278 279 280 281 282 283 284 285 287 288 289 290 290 290 290 289 287 287 286 284 282 282 281 277 273 272
246 248 250 251 253 255 257 260 262 265 267 270 273 275 277 279 278 278 279 279 281 282 284 285 286 287 288 289 290 291 291 290 290 290 288 287 286 285 284 282 280 275 274
246 248 249 251 253 256 257 260 263 265 268 270 273 275 277 278 278 278 278 279 281 283 285 286 287 288 289 291 291 291 291 291 290 290 290 290 289 289 288 286 281 276 276